Home   Weather   Xiamen   Past weeks

Flag for China Past Weather in Xiamen, Fujian, China — Yesterday and Last 2 Weeks

Now
61 °F

Passing clouds.


Feels Like: 61 °F
Forecast: 62 / 74 °F
Wind: 8 mph from Northeast

Location: Xiamen Airport

Current Time: Apr 28, 2017 at 5:04:08 am

Latest Report: Apr 28, 2017 at 4:00 am


Visibility: N/A

Pressure: 30.01 "Hg

Humidity: 77%

Dew Point: 54 °F

Location of XiamenLocation

Past Weather in Xiamen — Graph

°F

Xiamen Temperature Yesterday

Maximum temperature yesterday: 66 °F (at 12:00 am)
Minimum temperature yesterday: 61 °F (at 5:00 pm)
Average temperature yesterday: 64 °F

High & Low Weather Summary for the Past Weeks

 TemperatureHumidityPressure
High90 °F (Apr 17, 1:00 pm)100% (Apr 19, 2:00 am)30.12 "Hg (Apr 19, 2:00 am)
Low61 °F (Apr 27, 5:00 pm)32% (Apr 13, 10:00 am)29.71 "Hg (Apr 17, 3:00 pm)
Average73 °F70%29.91 "Hg
* Reported Apr 13 3:00 am — Apr 28 3:00 am, Xiamen, Weather by CustomWeather, © 2017

Note: Actual official high and low records may vary slightly from our data, if they occured in-between our weather recording intervals... More about our weather records

Advertising

Xiamen Weather History for the Previous 24 Hours

Scroll right to see more
 ConditionsComfort  
Time TempWeatherWind HumidityBarometerVisibility
3:00 am
Fri, Apr 28
61 °FPassing clouds.10 mph77%30.01 "HgN/A
2:00 am61 °FPassing clouds.10 mph72%30.01 "HgN/A
1:00 am61 °FPassing clouds.10 mph72%30.04 "HgN/A
12:00 am63 °FPassing clouds.10 mph73%30.04 "HgN/A
11:00 pm
Thu, Apr 27
61 °FPassing clouds.15 mph77%30.04 "HgN/A
10:00 pm63 °FPassing clouds.10 mph77%30.04 "HgN/A
9:00 pm63 °FPassing clouds.13 mph77%30.04 "HgN/A
8:00 pm63 °FPassing clouds.10 mph77%30.01 "HgN/A
7:00 pm63 °FPassing clouds.8 mph83%29.98 "HgN/A
6:00 pm63 °FLight rain. Mostly cloudy.8 mph83%29.98 "Hg4 mi
5:00 pm61 °FLight rain. Mostly cloudy.8 mph88%29.95 "Hg4 mi
4:00 pm63 °FLight rain. Fog.13 mph83%29.95 "Hg3 mi
3:00 pm63 °FCloudy.15 mph83%29.95 "HgN/A
2:00 pm63 °FLight rain. Fog.13 mph88%29.98 "Hg3 mi
1:00 pm63 °FSprinkles. Fog.13 mph94%29.98 "Hg2 mi
12:00 pm64 °FSprinkles. Cloudy.6 mph88%29.98 "Hg4 mi
11:00 am63 °FRain showers. Mostly cloudy.8 mph94%30.01 "Hg3 mi
10:00 am64 °FLight rain. Mostly cloudy.8 mph83%29.98 "HgN/A
9:00 am64 °FLight rain. Mostly cloudy.13 mph83%29.98 "HgN/A
8:00 am64 °FLight rain. Mostly cloudy.13 mph83%29.98 "HgN/A
7:00 am64 °FLight rain. Mostly cloudy.6 mph88%29.95 "Hg4 mi
6:00 am64 °FLight rain. Mostly cloudy.6 mph88%29.92 "HgN/A
5:00 am66 °FMostly cloudy.10 mph78%29.89 "HgN/A
Weather by CustomWeather, © 2017

See weather overviewHow to use our weather pages